Location: Feigenhofen
(48.4939°N, 10.7793°E)
Time: 22:57:23
(UTC+00:00)

GP-B - Pass Details

Date: 26 May 2022
Orbit: 630 x 634 km, 89.8° (Epoch: 24 June)

Event Time Altitude Azimuth Distance (km) Brightness Sun altitude
Rises 00:49:50 0° 356° (N) 2,940 7.7 -17.2°
Reaches altitude 10° 00:52:06 10° 352° (N) 2,027 6.6 -17.0°
Maximum altitude 00:56:24 50° 278° (W) 814 3.5 -16.7°
Enters shadow 00:58:12 30° 220° (SW) 1,124 3.8 -16.6°
